^^
Datos históricos de la estación: Murcia-Puente Tocinos
Diario Informe para Julio 2, 2019 Unidades:  Inglés    Métrico   Ambas
Diario Semanal Mensual Anual Configurable
  Máximo: Mínimo: Media:
Temperatura: 85.8 °F 75.4 °F 79.2 °F
Punto de rocio: 70.2 °F 62.2 °F 68 °F
Humedad: 83% 46% 70%
Velocidad viento: 12mph 1.8mph 5.9mph
Racha viento: 22mph - -
Viento- - ENE
Presión: 30 in 29.9 in -
Precipitación: 0 in    
Historical Graphs
 
 
Tabla de datos para Julio 2, 2019
Hora Temperatura Punto de rocio Presión Viento Velocidad viento Racha viento Humedad Intensidad lluvia(por hora) Nubes
00:00 76.8 °F 69.4 °F 29.9 in NE 7 mph 13 mph 78% 0 in CLR
00:05 76.6 °F 69.6 °F 29.9 in NE 7 mph 13 mph 79% 0 in CLR
00:10 76.6 °F 69.6 °F 29.9 in NE 6.2 mph 6.9 mph 79% 0 in CLR
00:15 76.6 °F 69.6 °F 29.9 in ENE 6 mph 10 mph 79% 0 in CLR
00:20 76.6 °F 69.6 °F 29.9 in ESE 4.7 mph 5.8 mph 79% 0 in CLR
00:25 76.6 °F 69.6 °F 29.9 in ENE 5 mph 10 mph 79% 0 in CLR
00:30 76.5 °F 69.8 °F 29.9 in NE 5.2 mph 5.9 mph 80% 0 in CLR
00:35 76.5 °F 69.8 °F 29.9 in ENE 5 mph 8 mph 80% 0 in CLR
00:40 76.5 °F 69.8 °F 29.9 in NE 4 mph 6.9 mph 80% 0 in CLR
00:45 76.5 °F 69.8 °F 29.9 in NE 5 mph 9 mph 80% 0 in CLR
00:50 76.5 °F 69.8 °F 29.9 in NE 4.7 mph 6.9 mph 80% 0 in CLR
00:55 76.5 °F 69.8 °F 29.9 in NE 5 mph 7 mph 80% 0 in CLR
01:00 76.5 °F 69.8 °F 29.9 in NE 5 mph 7 mph 80% 0 in CLR
01:05 76.3 °F 70 °F 29.9 in NE 5 mph 7 mph 81% 0 in CLR
01:10 76.5 °F 70.2 °F 29.9 in NNE 4 mph 4.6 mph 81% 0 in CLR
01:15 76.3 °F 70 °F 29.9 in NE 5 mph 6 mph 81% 0 in CLR
01:20 76.3 °F 70 °F 29.9 in ENE 3.1 mph 4.7 mph 81% 0 in CLR
01:25 76.3 °F 70 °F 29.9 in ENE 3.1 mph 4.6 mph 81% 0 in CLR
01:30 76.3 °F 70 °F 29.9 in East 3.1 mph 3.5 mph 81% 0 in CLR
01:35 76.3 °F 70 °F 29.9 in NE 3 mph 6 mph 81% 0 in CLR
01:40 76.3 °F 69.6 °F 29.9 in NE 3 mph 7 mph 80% 0 in CLR
01:45 76.3 °F 69.6 °F 29.9 in ENE 3 mph 6 mph 80% 0 in CLR
01:50 76.3 °F 69.6 °F 29.9 in NNE 2.9 mph 5.8 mph 80% 0 in CLR
01:55 76.3 °F 69.6 °F 29.9 in East 2 mph 6 mph 80% 0 in CLR
02:00 76.3 °F 69.6 °F 29.9 in East 2 mph 5 mph 80% 0 in CLR
02:05 76.3 °F 69.6 °F 29.9 in East 2 mph 5 mph 80% 0 in CLR
02:10 76.3 °F 69.6 °F 29.9 in ESE 2.9 mph 4.6 mph 80% 0 in CLR
02:15 76.3 °F 69.6 °F 29.9 in ESE 2 mph 6 mph 80% 0 in CLR
02:20 76.3 °F 69.6 °F 29.9 in ESE 3 mph 6 mph 80% 0 in CLR
02:25 76.3 °F 69.6 °F 29.9 in East 3 mph 7 mph 80% 0 in CLR
02:30 76.3 °F 69.6 °F 29.9 in ESE 3.1 mph 4.6 mph 80% 0 in CLR
02:35 76.3 °F 69.6 °F 29.9 in ENE 3 mph 6 mph 80% 0 in CLR
02:40 76.3 °F 69.6 °F 29.9 in NE 3.1 mph 4.7 mph 80% 0 in CLR
02:45 76.5 °F 69.8 °F 29.9 in ENE 3.1 mph 4.7 mph 80% 0 in CLR
02:50 76.5 °F 69.8 °F 29.9 in East 3.1 mph 5.8 mph 80% 0 in CLR
02:55 76.3 °F 69.6 °F 29.9 in East 3 mph 6 mph 80% 0 in CLR
03:00 76.3 °F 69.6 °F 29.9 in East 5 mph 6 mph 80% 0 in CLR
03:05 76.3 °F 69.6 °F 29.9 in ESE 4 mph 5.8 mph 80% 0 in CLR
03:10 76.1 °F 69.4 °F 29.9 in East 3 mph 6 mph 80% 0 in CLR
03:15 76.3 °F 69.3 °F 29.9 in ESE 3 mph 6 mph 79% 0 in CLR
03:20 76.3 °F 69.6 °F 29.9 in SSE 2.9 mph 4.3 mph 80% 0 in CLR
03:25 76.3 °F 69.6 °F 29.9 in ESE 2 mph 7 mph 80% 0 in CLR
03:30 76.3 °F 69.6 °F 29.9 in East 3 mph 6 mph 80% 0 in CLR
03:35 76.3 °F 69.6 °F 29.9 in East 3 mph 6 mph 80% 0 in CLR
03:40 76.5 °F 69.8 °F 29.9 in East 2.9 mph 2.9 mph 80% 0 in CLR
03:45 76.5 °F 69.8 °F 29.9 in East 2 mph 4 mph 80% 0 in CLR
03:50 76.5 °F 69.4 °F 29.9 in NE 1.8 mph 4.6 mph 79% 0 in CLR
03:55 76.5 °F 69.4 °F 29.9 in NNE 2 mph 5 mph 79% 0 in CLR
04:00 76.3 °F 69.6 °F 29.9 in NNE 3 mph 5 mph 80% 0 in CLR
04:05 76.3 °F 69.6 °F 29.9 in NNE 3 mph 6 mph 80% 0 in CLR
04:10 76.3 °F 70 °F 29.9 in NNE 3 mph 6 mph 81% 0 in CLR
04:15 76.3 °F 70 °F 29.9 in NNE 3 mph 6 mph 81% 0 in CLR
04:20 76.1 °F 69.8 °F 29.9 in NNE 4 mph 4.6 mph 81% 0 in CLR
04:25 76.1 °F 69.8 °F 29.9 in NNE 5 mph 7 mph 81% 0 in CLR
04:30 75.9 °F 69.6 °F 29.9 in NE 4 mph 5.8 mph 81% 0 in CLR
04:35 75.9 °F 69.6 °F 29.9 in NNE 5 mph 8 mph 81% 0 in CLR
04:40 75.9 °F 69.6 °F 29.9 in NE 4.3 mph 5.8 mph 81% 0 in CLR
04:45 75.9 °F 69.6 °F 29.9 in NNE 5 mph 7 mph 81% 0 in CLR
04:50 75.9 °F 69.6 °F 29.9 in NNE 4.3 mph 4.6 mph 81% 0 in CLR
04:55 75.9 °F 69.6 °F 29.9 in North 4.3 mph 4.6 mph 81% 0 in CLR
05:00 75.9 °F 69.6 °F 29.9 in NNE 3 mph 6 mph 81% 0 in CLR
05:05 75.9 °F 69.6 °F 29.9 in NE 3 mph 6 mph 81% 0 in CLR
05:10 76.1 °F 69.8 °F 29.9 in NNE 3.1 mph 4.6 mph 81% 0 in CLR
05:15 76.1 °F 69.8 °F 29.9 in NNE 3 mph 6 mph 81% 0 in CLR
05:20 76.1 °F 69.8 °F 29.9 in NE 3.6 mph 5.4 mph 81% 0 in CLR
05:25 75.9 °F 69.6 °F 29.9 in NNE 3 mph 6 mph 81% 0 in CLR
05:30 76.1 °F 69.8 °F 29.9 in NE 3.6 mph 5.8 mph 81% 0 in CLR
05:35 75.9 °F 69.8 °F 29.9 in NE 3 mph 6 mph 81% 0 in CLR
05:40 75.9 °F 69.6 °F 29.9 in ENE 4 mph 5.8 mph 81% 0 in CLR
05:45 76.1 °F 69.8 °F 29.9 in NE 5 mph 8 mph 81% 0 in CLR
05:50 76.1 °F 69.4 °F 29.9 in NNE 4.7 mph 5.8 mph 80% 0 in CLR
05:55 76.1 °F 69.4 °F 29.9 in NE 4.7 mph 5.8 mph 80% 0 in CLR
06:00 76.3 °F 69.6 °F 29.9 in NE 5 mph 6 mph 80% 0 in CLR
06:05 76.3 °F 69.6 °F 29.9 in ENE 5 mph 8 mph 80% 0 in CLR
06:10 76.3 °F 69.6 °F 29.9 in NE 4 mph 5.8 mph 80% 0 in CLR
06:15 76.3 °F 69.6 °F 29.9 in NE 5 mph 7 mph 80% 0 in CLR
06:20 76.3 °F 69.6 °F 29.9 in NE 4.7 mph 8.1 mph 80% 0 in CLR
06:25 76.1 °F 69.4 °F 29.9 in NE 5 mph 9 mph 80% 0 in CLR
06:30 76.1 °F 69.4 °F 29.9 in NE 6 mph 9 mph 80% 0 in CLR
06:35 76.3 °F 69.6 °F 29.9 in NE 6 mph 8 mph 80% 0 in CLR
06:40 76.1 °F 69.4 °F 29.9 in NE 6 mph 10 mph 80% 0 in CLR
06:45 76.1 °F 69.4 °F 29.9 in NE 6 mph 8 mph 80% 0 in CLR
06:50 76.1 °F 69.1 °F 29.9 in NE 5.4 mph 9.2 mph 79% 0 in CLR
06:55 76.1 °F 69.1 °F 29.9 in NE 6 mph 10 mph 79% 0 in CLR
07:00 76.1 °F 69.1 °F 29.9 in NE 7 mph 10 mph 79% 0 in CLR
07:05 76.3 °F 69.3 °F 29.9 in NE 7 mph 9 mph 79% 0 in CLR
07:10 76.1 °F 69.1 °F 29.9 in NE 6 mph 9 mph 79% 0 in CLR
07:15 76.1 °F 69.1 °F 29.9 in NE 6 mph 10 mph 79% 0 in CLR
07:20 76.1 °F 69.1 °F 29.9 in NE 6 mph 9 mph 79% 0 in CLR
07:25 76.1 °F 69.1 °F 29.9 in NE 6 mph 9 mph 79% 0 in CLR
07:30 76.3 °F 69.3 °F 29.9 in NE 5.4 mph 8.1 mph 79% 0 in CLR
07:35 76.3 °F 69.3 °F 29.9 in NE 6 mph 9 mph 79% 0 in CLR
07:40 76.3 °F 69.3 °F 29.9 in NE 5.9 mph 4.6 mph 79% 0 in CLR
07:45 76.3 °F 69.3 °F 29.9 in NE 6 mph 9 mph 79% 0 in CLR
07:50 76.3 °F 69.3 °F 29.9 in NE 5 mph 12 mph 79% 0 in CLR
07:55 76.3 °F 69.3 °F 29.9 in NE 5 mph 9 mph 79% 0 in CLR
08:00 76.3 °F 69.3 °F 29.9 in NE 6 mph 9 mph 79% 0 in CLR
08:05 76.3 °F 68.9 °F 29.9 in North 5.4 mph 8.1 mph 78% 0 in CLR
08:10 76.5 °F 69.1 °F 29.9 in ENE 5.4 mph 6.9 mph 78% 0 in CLR
08:15 76.5 °F 69.1 °F 29.9 in ENE 5.4 mph 9.2 mph 78% 0 in CLR
08:20 76.5 °F 69.1 °F 29.9 in North 5.2 mph 6.9 mph 78% 0 in CLR
08:25 76.5 °F 69.1 °F 29.9 in ENE 5 mph 9 mph 78% 0 in CLR
08:30 76.5 °F 69.1 °F 29.9 in NE 4 mph 4.6 mph 78% 0 in CLR
08:35 76.6 °F 69.3 °F 29.9 in NE 5 mph 8 mph 78% 0 in CLR
08:40 76.6 °F 68.9 °F 29.9 in ENE 4.3 mph 8.1 mph 77% 0 in CLR
08:45 76.6 °F 68.9 °F 29.9 in NE 5 mph 10 mph 77% 0 in CLR
08:50 76.6 °F 68.9 °F 29.9 in ENE 6.4 mph 6.9 mph 77% 0 in CLR
08:55 76.6 °F 68.9 °F 29.9 in NE 7 mph 10 mph 77% 0 in CLR
09:00 76.6 °F 69.3 °F 29.9 in NE 6 mph 10 mph 78% 0 in CLR
09:05 76.6 °F 69.3 °F 29.9 in NE 6 mph 9 mph 78% 0 in CLR
09:10 76.6 °F 69.3 °F 29.9 in NE 5.4 mph 9.2 mph 78% 0 in CLR
09:15 76.6 °F 69.3 °F 29.9 in ENE 6 mph 10 mph 78% 0 in CLR
09:20 76.6 °F 68.9 °F 29.9 in North 5.9 mph 10.4 mph 77% 0 in CLR
09:25 76.8 °F 69.1 °F 29.9 in ENE 6 mph 12 mph 77% 0 in CLR
09:30 76.8 °F 69.1 °F 29.9 in ENE 5 mph 9 mph 77% 0 in CLR
09:35 76.8 °F 69.1 °F 29.9 in ENE 5 mph 14 mph 77% 0 in CLR
09:40 76.6 °F 69.3 °F 29.9 in NE 7 mph 13 mph 78% 0 in CLR
09:45 76.5 °F 69.1 °F 29.9 in NE 7 mph 13 mph 78% 0 in CLR
09:50 76.3 °F 69.3 °F 29.9 in NE 6.9 mph 12.7 mph 79% 0 in CLR
09:55 75.9 °F 69.3 °F 29.9 in NE 7 mph 12 mph 80% 0 in CLR
10:00 75.7 °F 69.4 °F 29.9 in NE 8 mph 12 mph 81% 0 in CLR
10:05 75.6 °F 70 °F 30 in ENE 8 mph 8 mph 83% 0 in CLR
10:10 75.4 °F 70 °F 30 in ENE 4.7 mph 6.9 mph 83% 0 in CLR
10:15 75.4 °F 70 °F 30 in East 5 mph 6 mph 83% 0 in CLR
10:20 75.4 °F 70 °F 29.9 in NE 3.6 mph 5.8 mph 83% 0 in CLR
10:25 75.6 °F 70 °F 29.9 in ENE 3 mph 5 mph 83% 0 in CLR
10:30 75.6 °F 70 °F 29.9 in ENE 3 mph 6 mph 83% 0 in CLR
10:35 75.7 °F 70.2 °F 29.9 in ENE 3 mph 6 mph 83% 0 in CLR
10:40 75.7 °F 70 °F 29.9 in ENE 3 mph 5 mph 82% 0 in CLR
10:45 75.9 °F 69.6 °F 29.9 in East 3 mph 6 mph 81% 0 in CLR
10:50 76.1 °F 69.8 °F 29.9 in NE 3.6 mph 5.8 mph 81% 0 in CLR
10:55 76.3 °F 70 °F 29.9 in NE 3 mph 6 mph 81% 0 in CLR
11:00 76.3 °F 69.6 °F 29.9 in NE 2 mph 4 mph 80% 0 in CLR
11:05 76.5 °F 69.8 °F 29.9 in NE 2 mph 7 mph 80% 0 in CLR
11:10 76.6 °F 70 °F 29.9 in North 3.1 mph 4.6 mph 80% 0 in CLR
11:15 76.8 °F 69.8 °F 29.9 in NE 3 mph 6 mph 79% 0 in CLR
11:20 77.2 °F 69.8 °F 29.9 in NNE 3.1 mph 5.8 mph 78% 0 in CLR
11:25 77.2 °F 69.4 °F 29.9 in NE 3 mph 7 mph 77% 0 in CLR
11:30 77.5 °F 70.2 °F 29.9 in NNE 2 mph 6 mph 78% 0 in CLR
11:35 77.5 °F 69.4 °F 29.9 in NNE 2 mph 7 mph 76% 0 in CLR
11:40 77.9 °F 69.6 °F 29.9 in NNE 3 mph 6 mph 76% 0 in CLR
11:45 78.3 °F 69.6 °F 29.9 in NNE 3 mph 9 mph 75% 0 in CLR
11:50 78.4 °F 68.4 °F 29.9 in NE 4.3 mph 10.4 mph 71% 0 in CLR
11:55 78.6 °F 68.7 °F 29.9 in NE 5 mph 12 mph 72% 0 in CLR
12:00 78.8 °F 68.5 °F 29.9 in NE 6 mph 8 mph 71% 0 in CLR
12:05 79.2 °F 68.9 °F 29.9 in NE 6 mph 10 mph 71% 0 in CLR
12:10 79.2 °F 68.5 °F 29.9 in East 5.4 mph 6.9 mph 70% 0 in CLR
12:15 79.5 °F 68.9 °F 29.9 in ENE 6 mph 13 mph 70% 0 in CLR
12:20 79.5 °F 68.5 °F 29.9 in NNE 6.2 mph 9.2 mph 69% 0 in CLR
12:25 79.9 °F 68.7 °F 29.9 in ENE 6 mph 12 mph 69% 0 in CLR
12:30 80.2 °F 69.1 °F 29.9 in ENE 6 mph 16 mph 69% 0 in CLR
12:35 80.8 °F 69.3 °F 29.9 in ENE 6 mph 16 mph 68% 0 in CLR
12:40 81 °F 69.1 °F 29.9 in NE 5 mph 7 mph 67% 0 in CLR
12:45 81.5 °F 69.1 °F 29.9 in NE 5 mph 9 mph 66% 0 in CLR
12:50 81.9 °F 68.9 °F 29.9 in ENE 5.2 mph 8.1 mph 65% 0 in CLR
12:55 81.9 °F 68.5 °F 29.9 in NE 5 mph 13 mph 64% 0 in CLR
13:00 81.9 °F 68.5 °F 29.9 in NE 6 mph 10 mph 64% 0 in CLR
13:05 82 °F 68.2 °F 29.9 in ENE 6 mph 10 mph 63% 0 in CLR
13:10 82.2 °F 67.8 °F 29.9 in NNE 5.2 mph 9.2 mph 62% 0 in CLR
13:15 82.6 °F 68.2 °F 29.9 in NNE 5 mph 9 mph 62% 0 in CLR
13:20 82.8 °F 68.4 °F 29.9 in NNE 5 mph 8 mph 62% 0 in CLR
13:25 82.8 °F 67.5 °F 29.9 in NE 5 mph 14 mph 60% 0 in CLR
13:30 82.9 °F 66.7 °F 29.9 in NE 6 mph 14 mph 58% 0 in CLR
13:35 83.7 °F 66.7 °F 29.9 in NE 6 mph 14 mph 57% 0 in CLR
13:40 83.8 °F 65.8 °F 29.9 in East 7 mph 14 mph 55% 0 in CLR
13:45 83.8 °F 66.9 °F 29.9 in East 7 mph 13 mph 57% 0 in CLR
13:50 84 °F 67.1 °F 29.9 in ENE 7 mph 14 mph 57% 0 in CLR
13:55 84.2 °F 66.7 °F 29.9 in NE 7 mph 14 mph 56% 0 in CLR
14:00 84.4 °F 66.9 °F 29.9 in ENE 7 mph 12 mph 56% 0 in CLR
14:05 84.7 °F 66.4 °F 29.9 in East 7 mph 13 mph 54% 0 in CLR
14:10 84.7 °F 66.4 °F 29.9 in NE 6.4 mph 6.9 mph 54% 0 in CLR
14:15 84.9 °F 66.9 °F 29.9 in ENE 7 mph 14 mph 55% 0 in CLR
14:20 84.9 °F 66.4 °F 29.9 in NE 6.9 mph 12.7 mph 54% 0 in CLR
14:25 84.7 °F 66.7 °F 29.9 in NE 7 mph 15 mph 55% 0 in CLR
14:30 85.1 °F 66.6 °F 29.9 in ENE 6.9 mph 15 mph 54% 0 in CLR
14:35 84.9 °F 66.4 °F 29.9 in ENE 7 mph 14 mph 54% 0 in CLR
14:40 84.9 °F 65.8 °F 29.9 in ESE 6.4 mph 13.8 mph 53% 0 in CLR
14:45 84.7 °F 65.7 °F 29.9 in East 7 mph 14 mph 53% 0 in CLR
14:50 84.6 °F 65.5 °F 29.9 in SE 8.1 mph 4.6 mph 53% 0 in CLR
14:55 84.9 °F 64.8 °F 29.9 in NE 8 mph 18 mph 51% 0 in CLR
15:00 84.9 °F 64.2 °F 29.9 in NE 8 mph 14 mph 50% 0 in CLR
15:05 85.3 °F 64 °F 29.9 in NE 8 mph 16 mph 49% 0 in CLR
15:10 85.3 °F 65.1 °F 29.9 in NE 8 mph 12 mph 51% 0 in CLR
15:15 85.5 °F 63 °F 29.9 in NE 8 mph 21 mph 47% 0 in CLR
15:20 85.5 °F 62.2 °F 29.9 in NNE 10.7 mph 15 mph 46% 0 in CLR
15:25 85.3 °F 64 °F 29.9 in NE 10 mph 16 mph 49% 0 in CLR
15:30 85.6 °F 63.1 °F 29.9 in East 8.7 mph 11.5 mph 47% 0 in CLR
15:35 85.8 °F 62.6 °F 29.9 in ENE 9 mph 16 mph 46% 0 in CLR
15:40 85.8 °F 62.6 °F 29.9 in NE 8.5 mph 13.8 mph 46% 0 in CLR
15:45 85.6 °F 63.7 °F 29.9 in NNE 8 mph 20 mph 48% 0 in CLR
15:50 85.5 °F 64.8 °F 29.9 in East 10 mph 15 mph 50% 0 in CLR
15:55 85.6 °F 63.7 °F 29.9 in ENE 10 mph 14 mph 48% 0 in CLR
16:00 85.5 °F 64.2 °F 29.9 in ENE 8 mph 18 mph 49% 0 in CLR
16:05 84.9 °F 63.7 °F 29.9 in NE 8 mph 17 mph 49% 0 in CLR
16:10 85.1 °F 63.9 °F 29.9 in NE 10.7 mph 17.3 mph 49% 0 in CLR
16:15 85.3 °F 63.9 °F 29.9 in NE 10 mph 17 mph 49% 0 in CLR
16:20 85.5 °F 63.7 °F 29.9 in NE 9 mph 15 mph 48% 0 in CLR
16:25 85.8 °F 63.3 °F 29.9 in NE 9 mph 17 mph 47% 0 in CLR
16:30 85.5 °F 63.5 °F 29.9 in NE 9 mph 22 mph 48% 0 in CLR
16:35 85.6 °F 64.2 °F 29.9 in NE 9 mph 16 mph 49% 0 in CLR
16:40 85.6 °F 64.9 °F 29.9 in ENE 8 mph 17 mph 50% 0 in CLR
16:45 85.3 °F 64.6 °F 29.9 in ENE 8 mph 19 mph 50% 0 in CLR
16:50 84.9 °F 64.8 °F 29.9 in NE 12 mph 18 mph 51% 0 in CLR
16:55 85.1 °F 64.9 °F 29.9 in NE 12 mph 18 mph 51% 0 in CLR
17:00 85.3 °F 65.7 °F 29.9 in NE 9 mph 21 mph 52% 0 in CLR
17:05 85.3 °F 64.9 °F 29.9 in NE 9 mph 17 mph 51% 0 in CLR
17:10 85.5 °F 65.3 °F 29.9 in NE 10 mph 15 mph 51% 0 in CLR
17:15 85.5 °F 65.8 °F 29.9 in ENE 10 mph 16 mph 52% 0 in CLR
17:20 85.3 °F 64.6 °F 29.9 in ENE 9.2 mph 16.1 mph 50% 0 in CLR
17:25 85.1 °F 65.5 °F 29.9 in ENE 9 mph 17 mph 52% 0 in CLR
17:30 85.3 °F 66.2 °F 29.9 in ENE 10 mph 19 mph 53% 0 in CLR
17:35 84.7 °F 65.8 °F 29.9 in ENE 10 mph 20 mph 53% 0 in CLR
17:40 84.4 °F 65.8 °F 29.9 in North 9.7 mph 15 mph 54% 0 in CLR
17:45 84 °F 65.7 °F 29.9 in ENE 9 mph 18 mph 54% 0 in CLR
17:50 84.4 °F 65.5 °F 29.9 in ENE 10 mph 17.3 mph 53% 0 in CLR
17:55 84 °F 65.7 °F 29.9 in ENE 10 mph 21 mph 54% 0 in CLR
18:00 83.8 °F 66 °F 29.9 in ENE 10 mph 14 mph 55% 0 in CLR
18:05 84.4 °F 65.8 °F 29.9 in ENE 10 mph 13 mph 54% 0 in CLR
18:10 84.4 °F 66.4 °F 29.9 in ENE 8 mph 18 mph 55% 0 in CLR
18:15 84 °F 66.2 °F 29.9 in ENE 8 mph 16 mph 55% 0 in CLR
18:20 83.8 °F 66.6 °F 29.9 in ENE 8 mph 17 mph 56% 0 in CLR
18:25 83.7 °F 65.8 °F 29.9 in NE 8 mph 17 mph 55% 0 in CLR
18:30 83.5 °F 66 °F 29.9 in ENE 10 mph 16 mph 56% 0 in CLR
18:35 83.1 °F 66.4 °F 29.9 in ENE 10 mph 19 mph 57% 0 in CLR
18:40 82.9 °F 66 °F 29.9 in ENE 10 mph 20 mph 57% 0 in CLR
18:45 82.9 °F 65.7 °F 29.9 in ENE 10 mph 15 mph 56% 0 in CLR
18:50 82.9 °F 65.7 °F 29.9 in ENE 9 mph 15 mph 56% 0 in CLR
18:55 82.8 °F 66 °F 29.9 in NE 9 mph 20 mph 57% 0 in CLR
19:00 82.6 °F 65.8 °F 29.9 in NE 10 mph 20 mph 57% 0 in CLR
19:05 82.8 °F 65.5 °F 29.9 in NE 10 mph 15 mph 56% 0 in CLR
19:10 82.4 °F 65.1 °F 29.9 in NE 9 mph 15 mph 56% 0 in CLR
19:15 82.6 °F 65.1 °F 29.9 in NE 9 mph 15 mph 56% 0 in CLR
19:20 82.6 °F 65.3 °F 29.9 in NE 8 mph 14 mph 56% 0 in CLR
19:25 82.6 °F 65.3 °F 29.9 in NE 8 mph 17 mph 56% 0 in CLR
19:30 82 °F 64.8 °F 29.9 in NE 9 mph 15 mph 56% 0 in CLR
19:35 82 °F 64.8 °F 29.9 in NE 9 mph 18 mph 56% 0 in CLR
19:40 81.9 °F 65.1 °F 29.9 in NE 10 mph 17 mph 57% 0 in CLR
19:45 81.5 °F 65.3 °F 29.9 in NE 10 mph 19 mph 58% 0 in CLR
19:50 81.7 °F 66 °F 29.9 in NE 9 mph 14 mph 59% 0 in CLR
19:55 81.7 °F 65.5 °F 29.9 in NE 9 mph 14 mph 58% 0 in CLR
20:00 81.3 °F 66 °F 29.9 in NE 8 mph 14 mph 60% 0 in CLR
20:05 81.5 °F 66.4 °F 29.9 in NE 8 mph 12 mph 60% 0 in CLR
20:10 81.1 °F 66.4 °F 29.9 in ENE 7.6 mph 16.1 mph 61% 0 in CLR
20:15 81 °F 66.2 °F 29.9 in NE 8 mph 16 mph 61% 0 in CLR
20:20 80.8 °F 66.6 °F 29.9 in NE 8.5 mph 16.1 mph 62% 0 in CLR
20:25 80.6 °F 66.4 °F 29.9 in NE 8 mph 16 mph 62% 0 in CLR
20:30 80.4 °F 66.7 °F 29.9 in NE 9 mph 14 mph 63% 0 in CLR
20:35 80.4 °F 66.7 °F 29.9 in NE 9 mph 12 mph 63% 0 in CLR
20:40 80.4 °F 66.7 °F 29.9 in NE 6.2 mph 8.1 mph 63% 0 in CLR
20:45 80.4 °F 66.7 °F 29.9 in NE 6 mph 10 mph 63% 0 in CLR
20:50 80.2 °F 66.9 °F 29.9 in NE 5.9 mph 8.1 mph 64% 0 in CLR
20:55 79.9 °F 67.1 °F 29.9 in ENE 6 mph 13 mph 65% 0 in CLR
21:00 79.9 °F 67.1 °F 29.9 in ENE 6 mph 12 mph 65% 0 in CLR
21:05 79.5 °F 67.3 °F 29.9 in ENE 6 mph 14 mph 66% 0 in CLR
21:10 79.3 °F 67.5 °F 29.9 in NNE 6.2 mph 8.1 mph 67% 0 in CLR
21:15 79.2 °F 67.3 °F 29.9 in ENE 6 mph 10 mph 67% 0 in CLR
21:20 79 °F 67.1 °F 29.9 in East 5.4 mph 8.1 mph 67% 0 in CLR
21:25 79 °F 67.5 °F 29.9 in ENE 6 mph 9 mph 68% 0 in CLR
21:30 78.6 °F 67.6 °F 29.9 in NE 5.9 mph 9.2 mph 69% 0 in CLR
21:35 78.4 °F 67.8 °F 29.9 in NE 6 mph 12 mph 70% 0 in CLR
21:40 78.3 °F 67.6 °F 29.9 in NE 6.2 mph 11.5 mph 70% 0 in CLR
21:45 78.1 °F 67.5 °F 29.9 in NE 6 mph 12 mph 70% 0 in CLR
21:50 77.9 °F 67.6 °F 29.9 in NE 7 mph 12 mph 71% 0 in CLR
21:55 77.7 °F 68 °F 29.9 in NE 7 mph 12 mph 72% 0 in CLR
22:00 77.5 °F 68.2 °F 29.9 in NE 7 mph 9 mph 73% 0 in CLR
22:05 77.5 °F 68.2 °F 29.9 in NE 7 mph 10 mph 73% 0 in CLR
22:10 77.4 °F 68 °F 29.9 in NNE 6.4 mph 9.2 mph 73% 0 in CLR
22:15 77.4 °F 68 °F 29.9 in NE 7 mph 10 mph 73% 0 in CLR
22:20 77.2 °F 67.8 °F 29.9 in North 6.2 mph 5.2 mph 73% 0 in CLR
22:25 77.2 °F 67.8 °F 29.9 in NE 6 mph 9 mph 73% 0 in CLR
22:30 76.8 °F 67.8 °F 29.9 in NE 5.2 mph 6.9 mph 74% 0 in CLR
22:35 76.8 °F 68.4 °F 29.9 in NE 5 mph 9 mph 75% 0 in CLR
22:40 76.6 °F 68.2 °F 29.9 in NE 6 mph 8 mph 75% 0 in CLR
22:45 76.6 °F 68.5 °F 29.9 in NE 6 mph 8 mph 76% 0 in CLR
22:50 76.6 °F 68.5 °F 29.9 in NE 5 mph 8 mph 76% 0 in CLR
22:55 76.6 °F 68.9 °F 29.9 in NE 5 mph 8 mph 77% 0 in CLR
23:00 76.5 °F 69.1 °F 29.9 in NE 5 mph 7 mph 78% 0 in CLR
23:05 76.3 °F 69.3 °F 29.9 in NE 5 mph 9 mph 79% 0 in CLR
23:10 76.3 °F 69.3 °F 29.9 in NE 5.4 mph 8.5 mph 79% 0 in CLR
23:15 75.9 °F 69.4 °F 29.9 in NE 6 mph 10 mph 80% 0 in CLR
23:20 75.9 °F 69.3 °F 29.9 in NE 6 mph 10 mph 80% 0 in CLR
23:25 75.9 °F 69.3 °F 29.9 in NE 6 mph 7 mph 80% 0 in CLR
23:30 75.9 °F 69.3 °F 29.9 in NE 5 mph 7 mph 80% 0 in CLR
23:35 75.7 °F 69.4 °F 29.9 in NE 5 mph 7 mph 81% 0 in CLR
23:40 75.7 °F 69.4 °F 29.9 in NE 5 mph 7 mph 81% 0 in CLR
23:45 75.6 °F 69.6 °F 29.9 in NE 5 mph 8 mph 82% 0 in CLR
23:50 75.6 °F 69.6 °F 29.9 in NE 4 mph 5.8 mph 82% 0 in CLR
23:55 75.4 °F 70 °F 29.9 in NE 5 mph 7 mph 83% 0 in CLR
Murcia-Puente Tocinos, España
Compliments of Weather Underground - 2.75 mb

La estación de MeteoMurcia.com, publica sus datos en los siguientes proyectos:

Weather Underground PWS IMURCIAP2 Meteoclimatic www.awekas.at

W3Counter
Web Analytics